Regional Weather Roundup
Issued by NWS

Home | Current Version | Previous Version | Graphics & Text | Print | Product List | Glossary On
Versions: 1 2 3 4 5 6 7 8 9 10 11 12 13 14 15 16 17 18 19 20 21 22 23 24 25 26 27 28 29 30 31 32 33 34 35 36 37 38 39 40 41 42 43 44 45 46 47 48 49 50
000
ASUS43 KDMX 302008
RWRIA

WEATHER ROUNDUP FOR IOWA
NATIONAL WEATHER SERVICE DES MOINES IA
300 PM CDT MON MAY 30 2016

NOTE: "FAIR" INDICATES FEW OR NO CLOUDS BELOW 12,000 FEET WITH NO
SIGNIFICANT WEATHER AND/OR OBSTRUCTIONS TO VISIBILITY.

* - THESE STATIONS ARE NOT NWS STATIONS...THUS NOT UNDER NWS
QUALITY CONTROL.  THEY ALSO DO NOT REPORT WEATHER SUCH
AS PRECIPITATION OR FOG.

IAZ001>003-012>014-020>022-031>034-043>046-302100-
   NORTHWEST IOWA

CITY           SKY/WX    TMP DP  RH WIND       PRES   REMARKS
CARROLL *      MOSUNNY   86  55  35 SW12G21   29.92F HX  84
CHEROKEE *     CLOUDY    82  57  42 S9        29.91F HX  82
DENISON *      SUNNY     82  55  39 S13G22    29.91F HX  82
LE MARS *      SUNNY     84  55  37 S16G23    29.90F HX  83
ORANGE CITY *  SUNNY     82  55  39 S16G22    29.91F HX  82
SHELDON *      SUNNY     82  57  42 S14G21    29.90F HX  82
SIOUX CITY     CLOUDY    83  56  39 S15       29.89F HX  82
SPENCER        MOSUNNY   84  55  36 SW9G16    29.92F HX  83
STORM LAKE *     N/A     84  50  30 S12       29.93F HX  82
$$

IAZ055>058-069>071-079>083-090>094-302100-
   SOUTHWEST IOWA

CITY           SKY/WX    TMP DP  RH WIND       PRES   REMARKS
ATLANTIC *     MOSUNNY   86  61  42 SW13G20   29.93F HX  86
AUDUBON *        N/A     84  61  45 SW8       29.95F HX  84
CLARINDA *       N/A     86  63  45 MISG      29.95F HX  87
COUNCIL BLFS * SUNNY     84  64  51 S12G17    29.92F HX  86
CRESTON *      MOSUNNY   84  63  48 S18G24    29.97F HX  85
HARLAN  *      SUNNY     86  57  37 S13       29.96F HX  85
LAMONI         MOSUNNY   84  62  47 S12G17    29.97F HX  85
RED OAK *      MOSUNNY   84  63  48 S14G21    29.93F HX  85
SHENANDOAH *   MOSUNNY   86  61  42 SW14      29.93F HX  86
$$

IAZ047>049-059>061-072>074-084-302100-
   CENTRAL IOWA

CITY           SKY/WX    TMP DP  RH WIND       PRES   REMARKS
AMES           CLOUDY    84  63  49 S7        29.94F HX  85
ANKENY *       MOSUNNY   86  63  45 SW12      29.94F HX  87
BOONE *        MOSUNNY   86  61  42 VRB7      29.94F HX  86
CHARITON *     SUNNY     86  61  42 SW10      29.97F HX  86
DES MOINES     MOSUNNY   87  59  38 SW13      29.94F HX  86
GRINNELL*      MOSUNNY   84  59  42 S7        29.98S HX  84
KNOXVILLE *    MOSUNNY   86  57  37 SW7G16    29.95F HX  85
MARSHALLTOWN   SUNNY     83  61  47 S16       29.95F HX  83
NEWTON *       MOSUNNY   84  61  45 S8G17     29.96F HX  84
PELLA *        SUNNY     86  57  37 S7        29.98S HX  85
PERRY *          N/A     86  54  32 S12G21    29.93F HX  84
$$

IAZ004>006-015-016-023>025-035-036-302100-
   NORTH CENTRAL IOWA

CITY           SKY/WX    TMP DP  RH WIND       PRES   REMARKS
ALGONA *       SUNNY     82  55  39 S14G21    29.94F HX  82
CLARION *      SUNNY     84  59  42 SE13G20   29.95F HX  84
ESTHERVILLE    MOSUNNY   79  59  50 SE15      29.94F HX  80
FORT DODGE *   MOSUNNY   84  59  42 S10G20    29.94F HX  84
MASON CITY     SUNNY     80  61  52 S10       29.99F HX  81
FOREST CITY *  SUNNY     79  59  50 S10       29.98F HX  80
WEBSTER CITY * SUNNY     86  59  39 S12       29.93F HX  85
IOWA FALLS *     N/A     84  61  45 SE14G20   29.97F HX  84
$$

IAZ007>011-017>019-026>030-037>042-050>054-066-302100-
   NORTHEAST IOWA

CITY           SKY/WX    TMP DP  RH WIND       PRES   REMARKS
CEDAR RAPIDS   SUNNY     82  63  52 VRB7      29.98F HX  83
CHARLES CITY * SUNNY     81  54  39 SE9G16    29.99F HX  80
CLINTON *      SUNNY     85  56  37 S6        29.99F HX  84
DECORAH *      SUNNY     81  46  30 SE8       30.00S HX  80
DUBUQUE        SUNNY     81  48  31 S5        30.01F HX  80
MONTICELLO *   SUNNY     82  54  36 S3        29.99F HX  81
OELWEIN *      SUNNY     79  57  47 S6        30.01S HX  80
WATERLOO       SUNNY     81  59  47 SE12      29.97F HX  81
$$

IAZ064-065-067-068-078-302100-
   EAST CENTRAL IOWA

CITY           SKY/WX    TMP DP  RH WIND       PRES   REMARKS
DAVENPORT      SUNNY     83  55  38 SE3       30.00F HX  82
IOWA CITY      SUNNY     83  62  49 S10       29.99F HX  84
MT. PLEASANT * MOSUNNY   88  64  45 S5        29.99F HX  89
MUSCATINE *    SUNNY     84  63  48 VRB7      29.99F HX  85
QUAD CITIES    SUNNY     86  59  39 SW5       29.98F HX  85
$$

IAZ062-063-075>077-085>089-095>099-302100-
   SOUTHEAST IOWA

CITY           SKY/WX    TMP DP  RH WIND       PRES   REMARKS
BURLINGTON     SUNNY     84  62  47 VRB6      30.00F HX  85
FAIRFIELD *      N/A    N/A N/A N/A MISG        N/A
FORT MADISON *   N/A     84  61  45 S8        30.01F HX  84
KEOKUK *       SUNNY     84  64  51 VRB5      29.99F HX  86
OSKALOOSA *      N/A     86  59  39 S5        29.98F HX  85
OTTUMWA        MOSUNNY   85  65  51 S8        29.97F HX  86
WASHINGTON *   SUNNY     84 -29   1 S10       30.00F HX  80
$$

ABBREVIATIONS USED IN REMARKS
   TC - TEMPERATURES IN CELSIUS
  WCI - WIND CHILL INDEX
   HX - HEAT INDEX
  VSB - VISIBILITY
$$





USA.gov is the U.S. government's official web portal to all federal, state and local government web resources and services.